SCATSAT 1

Last updated on Fri Sep 19 2025 00:02:31 GMT+0000 (Coordinated Universal Time)

1 41790U 16059H 25261.05780090 .00001296 00000+0 18046-3 0 9996 2 41790 98.1595 316.6206 0056577 45.4504 315.1306 14.78496683 61367
UTC large
Height (km)
Speed (km/s)
/
Latitude / Longitude
Inclination (degrees)
Orbital Period (minutes)
Azimuth
Elevation
Range (km)
Doppler Factor

Next 0 passes for location: London (51.5072 / 0.1276)

Sorry there are no passes over London.